When you browse on this site, cookies collect data to enhance your experience and personalize the content and advertising you see.
Visit our Privacy Policy to learn more. By continuing to use the site, you agree to this use of cookies and data.
  • In Austria
  • List of Countries
  • For 7 days
  • Water Temperature
  • Weather Map
  • News
  • Weather Widgets
  • user-avatar
    Login

    Hourly Weather Haskovo

    Today, 20 October, Sunday

    Time Temperature Precipitation Wind Pressure Humidity
    00:00 +18°C° 0 mm 1 mps 744 mmHg 70%
    01:00 +18°C° 0 mm 1 mps 744 mmHg 75%
    02:00 +16°C° 0 mm 1 mps 744 mmHg 82%
    03:00 +15°C° 0 mm 0 mps 744 mmHg 84%
    04:00 +14°C° 0 mm 0 mps 744 mmHg 86%
    05:00 +14°C° 0 mm 0 mps 744 mmHg 88%
    06:00 +15°C° 0 mm 0 mps 745 mmHg 85%
    07:00 +15°C° 0 mm 0 mps 745 mmHg 83%
    08:00 +16°C° 0 mm 0 mps 745 mmHg 79%
    09:00 +18°C° 0 mm 0 mps 745 mmHg 71%
    10:00 +22°C° 0 mm 1 mps 745 mmHg 63%
    11:00 +23°C° 0 mm 1 mps 746 mmHg 54%
    12:00 +24°C° 0 mm 1 mps 745 mmHg 50%
    13:00 +25°C° 0 mm 1 mps 745 mmHg 45%
    14:00 +26°C° 0 mm 2 mps 745 mmHg 42%
    15:00 +26°C° 0 mm 2 mps 745 mmHg 43%
    16:00 +25°C° 0 mm 2 mps 745 mmHg 45%
    17:00 +24°C° 0 mm 2 mps 745 mmHg 47%
    18:00 +23°C° 0 mm 1 mps 745 mmHg 51%
    19:00 +22°C° 0 mm 1 mps 745 mmHg 55%
    20:00 +20°C° 0 mm 1 mps 745 mmHg 60%
    21:00 +20°C° 0 mm 1 mps 745 mmHg 62%
    22:00 +19°C° 0 mm 1 mps 746 mmHg 65%
    23:00 +19°C° 0 mm 1 mps 746 mmHg 68%

    Tomorrow, 21 October, Monday

    Time Temperature Precipitation Wind Pressure Humidity
    00:00 +18°C° 0 mm 1 mps 746 mmHg 71%
    01:00 +16°C° 0 mm 1 mps 746 mmHg 75%
    02:00 +16°C° 0 mm 1 mps 746 mmHg 78%
    03:00 +15°C° 0 mm 1 mps 746 mmHg 80%
    04:00 +14°C° 0 mm 0 mps 746 mmHg 82%
    05:00 +14°C° 0 mm 0 mps 746 mmHg 84%
    06:00 +14°C° 0 mm 0 mps 746 mmHg 81%
    07:00 +15°C° 0 mm 0 mps 746 mmHg 78%
    08:00 +18°C° 0 mm 1 mps 746 mmHg 75%
    09:00 +19°C° 0 mm 1 mps 746 mmHg 67%
    10:00 +21°C° 0 mm 1 mps 746 mmHg 59%
    11:00 +23°C° 0 mm 1 mps 747 mmHg 52%
    12:00 +24°C° 0 mm 2 mps 746 mmHg 48%
    13:00 +25°C° 0 mm 2 mps 746 mmHg 44%
    14:00 +26°C° 0 mm 2 mps 746 mmHg 40%
    15:00 +26°C° 0 mm 2 mps 746 mmHg 41%
    16:00 +25°C° 0 mm 2 mps 746 mmHg 43%
    17:00 +24°C° 0 mm 2 mps 745 mmHg 44%
    18:00 +23°C° 0 mm 1 mps 745 mmHg 48%
    19:00 +21°C° 0 mm 1 mps 746 mmHg 52%
    20:00 +20°C° 0 mm 1 mps 746 mmHg 55%
    21:00 +19°C° 0 mm 1 mps 746 mmHg 59%
    22:00 +19°C° 0 mm 1 mps 746 mmHg 63%
    23:00 +18°C° 0 mm 1 mps 746 mmHg 67%

    Day after tomorrow, 22 October, Tuesday

    Time Temperature Precipitation Wind Pressure Humidity
    00:00 +16°C° 0 mm 1 mps 746 mmHg 70%
    01:00 +16°C° 0 mm 1 mps 746 mmHg 73%
    02:00 +15°C° 0 mm 1 mps 746 mmHg 76%
    03:00 +15°C° 0 mm 1 mps 746 mmHg 78%
    04:00 +14°C° 0 mm 1 mps 746 mmHg 80%
    05:00 +14°C° 0 mm 1 mps 746 mmHg 82%
    06:00 +15°C° 0 mm 1 mps 746 mmHg 79%
    07:00 +15°C° 0 mm 1 mps 746 mmHg 76%
    08:00 +16°C° 0 mm 1 mps 746 mmHg 73%
    09:00 +19°C° 0 mm 1 mps 746 mmHg 65%
    10:00 +20°C° 0 mm 2 mps 747 mmHg 56%
    11:00 +23°C° 0 mm 2 mps 747 mmHg 48%
    12:00 +24°C° 0 mm 3 mps 747 mmHg 43%
    13:00 +25°C° 0 mm 3 mps 746 mmHg 37%
    14:00 +26°C° 0 mm 3 mps 746 mmHg 31%
    15:00 +25°C° 0 mm 3 mps 746 mmHg 33%
    16:00 +24°C° 0 mm 3 mps 746 mmHg 35%
    17:00 +23°C° 0 mm 2 mps 745 mmHg 37%
    18:00 +21°C° 0 mm 2 mps 746 mmHg 43%
    19:00 +20°C° 0 mm 1 mps 746 mmHg 49%
    20:00 +19°C° 0 mm 1 mps 746 mmHg 55%
    21:00 +18°C° 0 mm 1 mps 746 mmHg 59%
    22:00 +16°C° 0 mm 1 mps 746 mmHg 63%
    23:00 +16°C° 0 mm 1 mps 746 mmHg 68%

    23 October, Wednesday

    Time Temperature Precipitation Wind Pressure Humidity
    00:00 +15°C° 0 mm 1 mps 746 mmHg 71%
    01:00 +15°C° 0 mm 1 mps 746 mmHg 74%
    02:00 +14°C° 0 mm 1 mps 746 mmHg 78%
    03:00 +14°C° 0 mm 1 mps 746 mmHg 78%
    04:00 +13°C° 0 mm 1 mps 746 mmHg 78%
    05:00 +13°C° 0 mm 1 mps 746 mmHg 78%
    06:00 +14°C° 0 mm 1 mps 746 mmHg 74%
    07:00 +15°C° 0 mm 1 mps 746 mmHg 70%
    08:00 +15°C° 0 mm 1 mps 746 mmHg 66%
    09:00 +18°C° 0 mm 1 mps 746 mmHg 57%
    10:00 +20°C° 0 mm 2 mps 746 mmHg 48%
    11:00 +23°C° 0 mm 2 mps 746 mmHg 39%
    12:00 +24°C° 0 mm 2 mps 746 mmHg 36%
    13:00 +25°C° 0 mm 2 mps 745 mmHg 33%
    14:00 +25°C° 0 mm 3 mps 745 mmHg 30%
    15:00 +24°C° 0 mm 2 mps 745 mmHg 32%
    16:00 +23°C° 0 mm 2 mps 744 mmHg 35%
    17:00 +21°C° 0 mm 2 mps 744 mmHg 38%
    18:00 +21°C° 0 mm 1 mps 744 mmHg 42%
    19:00 +20°C° 0 mm 1 mps 744 mmHg 46%
    20:00 +19°C° 0 mm 1 mps 745 mmHg 50%
    21:00 +18°C° 0 mm 1 mps 745 mmHg 53%
    22:00 +16°C° 0 mm 1 mps 745 mmHg 57%
    23:00 +16°C° 0 mm 1 mps 745 mmHg 60%

    24 October, Thursday

    Time Temperature Precipitation Wind Pressure Humidity
    00:00 +15°C° 0 mm 1 mps 744 mmHg 64%
    01:00 +14°C° 0 mm 1 mps 744 mmHg 67%
    02:00 +14°C° 0 mm 1 mps 744 mmHg 71%
    03:00 +14°C° 0 mm 1 mps 744 mmHg 72%
    04:00 +13°C° 0 mm 1 mps 744 mmHg 74%
    05:00 +13°C° 0 mm 1 mps 744 mmHg 76%
    06:00 +13°C° 0 mm 1 mps 744 mmHg 73%
    07:00 +14°C° 0 mm 1 mps 744 mmHg 69%
    08:00 +15°C° 0 mm 1 mps 744 mmHg 66%
    09:00 +18°C° 0 mm 1 mps 744 mmHg 58%
    10:00 +20°C° 0 mm 1 mps 744 mmHg 49%
    11:00 +22°C° 0 mm 1 mps 744 mmHg 41%
    12:00 +23°C° 0 mm 2 mps 743 mmHg 38%
    13:00 +23°C° 0 mm 2 mps 743 mmHg 35%
    14:00 +24°C° 0 mm 2 mps 743 mmHg 31%
    15:00 +23°C° 0 mm 2 mps 743 mmHg 33%
    16:00 +23°C° 0 mm 2 mps 742 mmHg 35%
    17:00 +22°C° 0 mm 1 mps 742 mmHg 38%
    18:00 +20°C° 0 mm 1 mps 742 mmHg 41%
    19:00 +19°C° 0 mm 1 mps 742 mmHg 45%
    20:00 +18°C° 0 mm 1 mps 742 mmHg 48%
    21:00 +16°C° 0 mm 1 mps 742 mmHg 51%
    22:00 +16°C° 0 mm 1 mps 742 mmHg 54%
    23:00 +15°C° 0 mm 1 mps 742 mmHg 57%

    25 October, Friday

    Time Temperature Precipitation Wind Pressure Humidity
    00:00 +15°C° 0 mm 1 mps 742 mmHg 60%
    01:00 +14°C° 0 mm 1 mps 742 mmHg 63%
    02:00 +14°C° 0 mm 1 mps 742 mmHg 65%
    03:00 +13°C° 0 mm 1 mps 742 mmHg 67%
    04:00 +13°C° 0 mm 1 mps 742 mmHg 69%
    05:00 +12°C° 0 mm 1 mps 742 mmHg 70%
    06:00 +13°C° 0 mm 1 mps 742 mmHg 68%
    07:00 +14°C° 0 mm 1 mps 742 mmHg 66%
    08:00 +14°C° 0 mm 1 mps 742 mmHg 63%
    09:00 +16°C° 0 mm 1 mps 742 mmHg 56%
    10:00 +19°C° 0 mm 1 mps 743 mmHg 50%
    11:00 +21°C° 0 mm 1 mps 743 mmHg 43%
    12:00 +21°C° 0 mm 2 mps 742 mmHg 39%
    13:00 +23°C° 0 mm 2 mps 742 mmHg 36%
    14:00 +24°C° 0 mm 2 mps 742 mmHg 32%
    15:00 +23°C° 0 mm 2 mps 742 mmHg 34%
    16:00 +21°C° 0 mm 2 mps 742 mmHg 35%
    17:00 +21°C° 0 mm 1 mps 742 mmHg 37%
    18:00 +20°C° 0 mm 1 mps 742 mmHg 40%
    19:00 +19°C° 0 mm 1 mps 742 mmHg 43%
    20:00 +18°C° 0 mm 1 mps 742 mmHg 46%
    21:00 +16°C° 0 mm 1 mps 743 mmHg 48%
    22:00 +15°C° 0 mm 1 mps 743 mmHg 51%
    23:00 +15°C° 0 mm 1 mps 743 mmHg 53%
    Show more